#timestamp,LO_Frequency,Hit,StdDev 
1634306415.0,286046996.6,N
1634306415.9,286046996.6,N
1634306435.8,286046999.2,N
1634306455.6,286046997.8,N
1634306475.4,286046999.1,N
1634306495.3,286046996.6,N
1634306515.1,286046996.5,N
1634306535.8,286046999.5,N
1634306555.7,286046998.9,N
1634306575.5,286046999.6,N
1634306595.4,286046999.4,N
1634306615.2,286046996.6,N
1634306635.0,286046996.8,N
1634306635.9,286046996.8,N
1634306655.8,286046996.7,N
1634306675.6,286046999.1,N
1634306695.4,286046997.7,N
1634306715.3,286046999.5,N
1634306735.1,286046997.1,N
1634306755.9,286046996.9,N
1634306775.7,286046999.5,N
1634306795.5,286046999.0,N
1634306815.4,286046999.2,N
1634306835.2,286046999.0,N
1634306855.0,286046998.6,N
1634306855.9,286046998.6,N
1634306875.8,286046999.3,N
1634306895.6,286046999.6,N
1634306915.5,286046999.2,N
1634306935.3,286046997.8,N
1634306955.1,286046997.2,N
1634306975.9,286046998.6,N
1634306995.7,286046999.3,N
1634307015.6,286046999.0,N
1634307035.4,286046998.8,N
1634307055.2,286046999.4,N
1634307075.1,286046999.6,N
1634307076.0,286046999.6,N
1634307095.8,286046999.5,N
1634307115.6,286046999.0,N
1634307135.5,286047000.8,N
1634307155.3,286046998.7,N
1634307175.2,286046998.9,N
1634307195.9,286046996.8,Y
1634307215.7,286046998.2,P
1634307265.6,286046998.4,E
1634307275.5,286046999.4,N
1634307295.4,286047001.2,P
1634307315.2,286046999.8,N
1634307335.0,286047000.8,N
1634307335.9,286047000.8,N
1634307355.8,286047002.8,Y
1634307375.6,286047000.8,P
1634307395.5,286046998.4,P
1634307415.3,286046998.4,N
1634307435.1,286047000.3,N
1634307455.9,286047000.5,N
1634307475.7,286047002.6,N
1634307495.5,286046999.7,N
1634307515.4,286047001.3,N
1634307535.2,286047001.6,N
1634307555.1,286047001.8,N
1634307556.0,286047001.8,N
1634307575.8,286047002.6,N
1634307595.6,286047001.5,N
1634307615.5,286047001.5,N
1634307635.3,286047002.1,N
1634307655.1,286047000.5,N
1634307675.9,286047002.2,N
1634307695.7,286047001.5,N
1634307715.6,286047001.6,N
1634307735.4,286047001.5,N
1634307755.2,286047002.6,N
1634307775.1,286047002.5,N
1634307776.0,286047002.5,N
1634307795.8,286047001.4,N
1634307815.6,286047002.0,N
1634307835.5,286047002.5,N
1634307855.3,286047002.4,N
1634307875.2,286047001.4,N
1634307895.9,286047004.4,Y
1634307915.7,286047002.8,P
1634307935.6,286047000.5,N
1634307955.4,286047000.6,N
1634307975.3,286047001.0,N
1634307995.1,286046998.2,N
1634307996.0,286046998.2,N
1634308015.8,286046998.7,N
1634308035.7,286047001.2,N
1634308055.5,286047000.4,N
1634308075.3,286047000.3,N
1634308095.2,286047000.7,N
1634308115.0,286047000.4,N
1634308115.9,286047000.4,N
1634308135.8,286046999.7,N
1634308155.6,286047000.5,N
1634308175.4,286047000.7,N
1634308195.3,286047002.8,N
1634308215.1,286047000.6,N
1634308235.8,286047000.2,N
1634308255.7,286047002.0,N
1634308275.5,286047000.2,N
1634308295.4,286046999.9,N
1634308315.2,286047002.2,N
1634308335.0,286046999.9,N
1634308335.9,286046999.9,N
1634308355.8,286047000.2,N
1634308375.6,286047001.0,N
1634308395.4,286047002.2,N
1634308415.3,286047000.3,N
1634308435.1,286047002.6,N
1634308455.9,286047002.4,N
1634308475.7,286047002.6,N
1634308495.5,286047001.5,N
1634308515.4,286047002.2,N
1634308535.2,286047002.2,N
1634308555.0,286047002.1,N
1634308555.9,286047002.1,N
1634308575.8,286047001.5,N
1634308595.6,286047004.2,Y
1634308615.5,286047001.8,P
1634308635.3,286047004.0,P
1634308655.1,286047003.6,N
1634308675.9,286047001.5,N
1634308695.7,286047004.3,Y
1634308715.6,286047000.1,P
1634308735.4,286047000.5,N
1634308755.2,286047002.6,N
1634308775.1,286047001.6,N
1634308776.0,286047001.6,N
1634308795.8,286047001.6,N
1634308815.6,286047002.6,Y
1634308835.5,286046998.5,P
1634308855.3,286047000.6,N
1634308875.2,286046998.2,N
1634308895.9,286047000.5,N
1634308915.7,286047001.0,N
1634308935.6,286047001.0,N
1634308955.4,286047001.0,N
1634308975.2,286047000.6,N
1634308995.1,286047002.5,N
1634308996.0,286047002.5,N
1634309015.8,286047002.7,N
1634309035.7,286047002.6,N
1634309055.5,286046999.7,N
1634309075.3,286047000.0,N
1634309095.2,286047004.4,Y
1634309115.0,286047002.8,P
1634309115.9,286047002.8,N
1634309135.7,286047000.1,N
1634309155.6,286047002.5,N
1634309175.4,286047002.7,N
1634309195.3,286047000.3,N
1634309215.1,286047002.4,N
1634309235.8,286047001.4,N
1634309255.7,286047002.6,N
1634309275.5,286047002.5,N
1634309295.4,286047002.3,N
1634309315.2,286047001.4,N
1634309335.0,286047000.1,N
1634309335.9,286047000.1,N
1634309355.8,286047001.7,N
1634309375.6,286047004.1,Y
1634309395.5,286047002.7,P
1634309415.3,286047002.6,P
1634309435.1,286047002.1,P
1634309455.9,286047001.9,Y
1634309475.7,286047000.5,P
1634309495.6,286046999.8,N
1634309515.4,286047000.7,N
1634309535.2,286047000.7,N
1634309555.1,286047001.1,N
1634309556.0,286047001.1,N
1634309575.8,286047001.1,N
1634309595.6,286046998.5,N
1634309615.5,286047000.8,N
1634309635.3,286047001.0,N
1634309655.2,286047000.0,N
1634309675.9,286047000.5,N
1634309695.7,286047000.2,N
1634309715.6,286047000.7,N
1634309735.4,286047001.8,N
1634309755.3,286047001.8,N
1634309775.1,286047002.5,N
1634309776.0,286047002.5,N
1634309795.8,286047001.3,N
1634309815.7,286047001.3,N
1634309835.5,286047003.5,Y
1634309855.3,286047002.5,P
1634309875.2,286047002.7,P
1634309895.0,286047001.8,N
1634309895.9,286047001.8,N
1634309915.8,286047002.0,Y
1634309935.6,286047000.0,P
1634309955.4,286047000.1,N
1634309975.3,286046999.8,N
1634309995.1,286047000.2,N
